sat.trackr.live / text

‹ back to catalog

STARLINK-32582

NORAD 62033 · 2024-216B

PAYLOAD ACTIVE UNKNOWN

§ Identity

Operator
Country
US
Launch date
2024-11-21
Launch site
AFETR
Launch vehicle
Mass (kg)
RCS (m²)

Purposes: comms

External: N2YO · Heavens-Above · Gunter

§ Orbital elements

Epoch: 2026-05-25T02:52:39.790272Z

Period
94.27 min
Inclination
42.9991°
Eccentricity
0.0000537
Mean motion
15.27578505 rev/d
Perigee alt
482.7 km
Apogee alt
483.4 km
Semi-major
6,861.2 km
B*
2.5395e-4
RAAN
191.7000°
Arg perigee
292.5909°
Mean anomaly
67.4885°
Rev number
8,548

§ Raw data

STARLINK-325821 62033U 24216B   26145.11990498  .00006732  00000+0  25395-3 0  99922 62033  42.9991 191.7000 0000537 292.5909  67.4885 15.27578505 85487

JSON: /api/v1/satellites/62033 · /tle

For live sub-satellite position, see the globe view (requires WebGL).

§ Visibility from observer

Set your observer location to see the next 7 days of passes ≥ 10°. The values pass through the URL so the page stays shareable.

No JS? Fill the form by hand. The geolocation button needs JavaScript.